| time (UTC) | temp C | wind direction | speed KPH | gust KPH | rain 1hr cm | rain 24hr cm | rain mn cm | humidity % | barometer mb |
| 20260502200050 | 8 | 360 | 0.0 | 3.2 | 0.00 | 0.00 | 0.00 | 69 | 1021.5 |
| 20260502194548 | 8 | 360 | 0.0 | 0.0 | 0.00 | 0.00 | 0.00 | 69 | 1021.6 |
| 20260502193048 | 8 | 360 | 0.0 | 0.0 | 0.00 | 0.00 | 0.00 | 69 | 1021.5 |
| 20260502190049 | 10 | 360 | 0.0 | 0.0 | 0.00 | 0.00 | 0.00 | 66 | 1021.4 |
| 20260502184601 | 11 | 360 | 0.0 | 0.0 | 0.00 | 0.00 | 0.00 | 64 | 1021.3 |
| 20260502183051 | 12 | 360 | 0.0 | 0.0 | 0.00 | 0.00 | 0.00 | 59 | 1021.1 |
| 20260502163052 | 21 | 360 | 4.8 | 12.9 | 0.00 | 0.00 | 0.00 | 32 | 1021.4 |
| 20260502123016 | 21 | 360 | 1.6 | 12.9 | 0.00 | 0.00 | 0.00 | 39 | 1024.0 |
| 20260502114514 | 20 | 360 | 4.8 | 12.9 | 0.00 | 0.00 | 0.00 | 36 | 1024.7 |
| 20260502113010 | 20 | 360 | 4.8 | 12.9 | 0.00 | 0.00 | 0.00 | 37 | 1024.8 |
| 20260502110007 | 20 | 360 | 0.0 | 8.0 | 0.00 | 0.00 | 0.00 | 38 | 1025.1 |
| 20260502104506 | 19 | 360 | 0.0 | 12.9 | 0.00 | 0.00 | 0.00 | 40 | 1025.2 |
| 20260502103009 | 19 | 360 | 6.4 | 14.5 | 0.00 | 0.00 | 0.00 | 44 | 1025.5 |
| 20260502100121 | 18 | 360 | 3.2 | 9.7 | 0.00 | 0.00 | 0.00 | 42 | 1026.0 |
| 20260502070046 | 14 | 360 | 0.0 | 3.2 | 0.00 | 0.00 | 0.00 | 63 | 1027.4 |
| 20260502064531 | 13 | 360 | 0.0 | 1.6 | 0.00 | 0.00 | 0.00 | 69 | 1027.4 |
| 20260502063030 | 12 | 360 | 1.6 | 3.2 | 0.00 | 0.00 | 0.00 | 70 | 1027.6 |
| 20260502060019 | 9 | 360 | 0.0 | 0.0 | 0.00 | 0.00 | 0.00 | 73 | 1027.8 |
| 20260502054514 | 7 | 360 | 0.0 | 0.0 | 0.00 | 0.00 | 0.00 | 79 | 1027.7 |
| 20260502053010 | 5 | 360 | 0.0 | 0.0 | 0.00 | 0.00 | 0.00 | 86 | 1027.7 |
| 20260502050005 | 1 | 360 | 0.0 | 0.0 | 0.00 | 0.00 | 0.00 | 90 | 1027.7 |
| 20260502044504 | 0 | 360 | 0.0 | 0.0 | 0.00 | 0.00 | 0.00 | 90 | 1027.6 |
| 20260502043005 | 0 | 360 | 0.0 | 0.0 | 0.00 | 0.00 | 0.00 | 89 | 1027.8 |
| 20260502040000 | -1 | 360 | 0.0 | 0.0 | 0.00 | 0.00 | 0.00 | 87 | 1027.6 |
| 20260502034600 | -1 | 360 | 0.0 | 0.0 | 0.00 | 0.00 | 0.00 | 87 | 1027.7 |
| 20260502033105 | -1 | 360 | 0.0 | 0.0 | 0.00 | 0.00 | 0.00 | 87 | 1027.7 |
| 20260502031557 | 0 | 360 | 0.0 | 0.0 | 0.00 | 0.00 | 0.00 | 87 | 1027.8 |
| 20260502030100 | 0 | 360 | 0.0 | 0.0 | 0.00 | 0.00 | 0.00 | 87 | 1027.7 |
| 20260502023109 | 0 | 360 | 0.0 | 0.0 | 0.00 | 0.00 | 0.00 | 86 | 1027.8 |
| 20260502021553 | 0 | 360 | 0.0 | 0.0 | 0.00 | 0.00 | 0.00 | 87 | 1027.9 |
| 20260502020052 | 0 | 360 | 0.0 | 0.0 | 0.00 | 0.00 | 0.00 | 86 | 1027.8 |
| 20260502013048 | 0 | 360 | 0.0 | 0.0 | 0.00 | 0.00 | 0.00 | 86 | 1028.1 |
| 20260502011554 | 0 | 360 | 0.0 | 0.0 | 0.00 | 0.00 | 0.00 | 86 | 1028.1 |
| 20260502010046 | 0 | 360 | 0.0 | 0.0 | 0.00 | 0.00 | 0.00 | 86 | 1028.3 |
| 20260502003044 | 1 | 360 | 0.0 | 0.0 | 0.00 | 0.00 | 0.00 | 85 | 1028.6 |
| 20260502001541 | 1 | 360 | 0.0 | 0.0 | 0.00 | 0.00 | 0.00 | 86 | 1028.5 |
| 20260502000039 | 1 | 360 | 0.0 | 0.0 | 0.00 | 0.00 | 0.00 | 85 | 1028.6 |
| 20260501234638 | 1 | 360 | 0.0 | 0.0 | 0.00 | 0.00 | 0.00 | 85 | 1028.7 |
| 20260501233037 | 1 | 360 | 0.0 | 0.0 | 0.00 | 0.00 | 0.00 | 85 | 1028.8 |
| 20260501231535 | 1 | 360 | 0.0 | 0.0 | 0.00 | 0.00 | 0.00 | 85 | 1028.8 |
| 20260501230037 | 1 | 360 | 0.0 | 0.0 | 0.00 | 0.00 | 0.00 | 84 | 1028.8 |
| 20260501223035 | 2 | 360 | 0.0 | 0.0 | 0.00 | 0.00 | 0.00 | 83 | 1028.8 |
| 20260501221529 | 2 | 360 | 0.0 | 0.0 | 0.00 | 0.00 | 0.00 | 84 | 1028.8 |
| 20260501220026 | 2 | 360 | 0.0 | 0.0 | 0.00 | 0.00 | 0.00 | 83 | 1028.8 |
| 20260501214626 | 2 | 360 | 0.0 | 0.0 | 0.00 | 0.00 | 0.00 | 82 | 1028.9 |
| 20260501213024 | 3 | 360 | 0.0 | 0.0 | 0.00 | 0.00 | 0.00 | 83 | 1028.9 |
| 20260501211524 | 3 | 360 | 0.0 | 0.0 | 0.00 | 0.00 | 0.00 | 82 | 1028.8 |
| 20260501210023 | 3 | 360 | 0.0 | 0.0 | 0.00 | 0.00 | 0.00 | 82 | 1028.7 |
| 20260501204524 | 3 | 360 | 0.0 | 0.0 | 0.00 | 0.00 | 0.00 | 81 | 1028.6 |
| 20260501203037 | 4 | 360 | 0.0 | 0.0 | 0.00 | 0.00 | 0.00 | 81 | 1028.8 |